Location: Newark
(49.3000°N, 9.4667°E)
Time: 03:22:07
(UTC+00:00)

Transit 4A - Pass Details

Date: 28 May 2019
Orbit: 862 x 983 km, 66.8° (Epoch: 16 June)

Event Time Altitude Azimuth Distance (km) Brightness Sun altitude
Rises 21:11:21 0° 324° (NW) 3,697 13.0 -13.7°
Reaches altitude 10° 21:13:58 10° 327° (NNW) 2,747 11.8 -13.9°
Maximum altitude 21:20:25 70° 51° (NE) 1,037 8.2 -14.4°
Enters shadow 21:25:07 19° 132° (SE) 2,128 9.2 -14.7°
